Home > Weather > Nantes > Past weeks

Flag for France Weather for the Past 2 Weeks in Nantes, France

Now
50 °F

Broken clouds.


Feels Like: 45 °F
Forecast: 49 / 53 °F
Wind: 14 mph from Southwest

Location: Nantes Airport

Current Time: Feb 7, 2016 at 5:11:12 PM

Latest Report: Feb 7, 2016 at 4:30 PM


Visibility: N/A

Pressure: 29.77 "Hg

Humidity: 76%

Dew point: 43 °F

Location of NantesLocation

Historic Weather in Nantes — Graph

°F

Nantes Temperature Yesterday

Maximum temperature yesterday: 57 °F (at 1:30 PM)
Minimum temperature yesterday: 46 °F (at 12:00 AM)
Average temperature yesterday: 52 °F

High & Low Weather Summary for the Past Weeks

 TemperatureHumidityPressure
High61 °F (Jan 24, 2:00 PM)100% (Jan 26, 12:00 AM)30.60 "Hg (Jan 26, 12:00 AM)
Low34 °F (Jan 29, 2:00 AM)54% (Feb 3, 3:30 PM)29.45 "Hg (Feb 6, 8:30 PM)
Average50 °F86%30.25 "Hg
* Reported Jan 23 4:00 PM — Feb 7 4:00 PM, Nantes, Weather by CustomWeather, © 2016

Note: Actual official high and low records may vary slightly from our data, if they occured in-between our weather recording intervals... More about our weather records

Advertising

Nantes Weather History for the Previous 24 Hours

 ConditionsComfort  
Time TempWeatherWind HumidityBarometerVisibility
4:00 PM
Sun, Feb 7
52 °FBroken clouds.14 mph67%29.77 "HgN/A
3:30 PM52 °FScattered clouds.22 mph67%29.77 "HgN/A
3:00 PM52 °FScattered clouds.18 mph62%29.77 "HgN/A
2:30 PM52 °FScattered clouds.16 mph67%29.77 "HgN/A
2:00 PM50 °FScattered clouds.16 mph71%29.77 "HgN/A
1:30 PM52 °FScattered clouds.18 mph62%29.77 "HgN/A
1:00 PM48 °FScattered clouds.17 mph71%29.77 "HgN/A
12:00 PM50 °FPassing clouds.15 mph71%29.77 "HgN/A
11:30 AM50 °FPassing clouds.17 mph71%29.74 "HgN/A
11:00 AM50 °FPassing clouds.17 mph67%29.74 "HgN/A
10:30 AM48 °FScattered clouds.10 mph76%29.71 "HgN/A
10:00 AM46 °FScattered clouds.9 mph82%29.71 "HgN/A
9:30 AM46 °FScattered clouds.5 mph82%29.68 "HgN/A
9:00 AM43 °FScattered clouds.7 mph87%29.68 "HgN/A
8:30 AM43 °FScattered clouds.7 mph87%29.68 "HgN/A
8:00 AM43 °FPassing clouds.9 mph87%29.65 "HgN/A
7:30 AM43 °FPassing clouds.8 mph81%29.65 "HgN/A
7:00 AM45 °FPassing clouds.12 mph76%29.62 "HgN/A
6:30 AM45 °FPassing clouds.9 mph76%29.62 "HgN/A
6:00 AM45 °FSprinkles. Passing clouds.9 mph76%29.62 "HgN/A
5:30 AM43 °FPassing clouds.6 mph81%29.59 "HgN/A
5:00 AM45 °FPassing clouds.7 mph81%29.59 "HgN/A
4:30 AM45 °FRain. Partly cloudy.9 mph81%29.59 "HgN/A
4:00 AM43 °FClear.7 mph87%29.56 "Hg10 mi
3:30 AM43 °FPassing clouds.7 mph93%29.56 "HgN/A
3:00 AM45 °FClear.7 mph81%29.53 "Hg10 mi
2:30 AM45 °FPartly cloudy.9 mph81%29.53 "HgN/A
2:00 AM46 °FSprinkles. Passing clouds.7 mph87%29.53 "HgN/A
1:30 AM48 °FPassing clouds.9 mph82%29.50 "HgN/A
1:00 AM48 °FPassing clouds.10 mph82%29.50 "HgN/A
12:30 AM48 °FPartly cloudy.9 mph87%29.47 "HgN/A
12:00 AM48 °FPartly cloudy.12 mph87%29.45 "HgN/A
11:30 PM
Sat, Feb 6
46 °FPartly cloudy.14 mph87%29.45 "HgN/A
11:00 PM48 °FLight rain. Partly cloudy.14 mph94%29.45 "HgN/A
10:00 PM48 °FLight rain. Passing clouds.12 mph94%29.45 "Hg5 mi
9:30 PM50 °FLight rain. Passing clouds.18 mph88%29.47 "Hg5 mi
9:00 PM52 °FLight rain. Partly cloudy.14 mph88%29.45 "HgN/A
8:30 PM52 °FLight rain. Partly cloudy.18 mph88%29.45 "HgN/A
8:00 PM52 °FLight rain. Partly cloudy.20 mph88%29.47 "HgN/A
7:30 PM52 °FLight rain. Passing clouds.16 mph88%29.47 "Hg4 mi
7:00 PM55 °FPassing clouds.24 mph72%29.50 "HgN/A
6:30 PM55 °FClear.23 mph67%29.50 "Hg10 mi
6:00 PM54 °FSunny.21 mph72%29.50 "Hg10 mi
5:30 PM54 °FSunny.21 mph72%29.53 "Hg10 mi
5:00 PM54 °FSunny.23 mph72%29.53 "Hg10 mi
Weather by CustomWeather, © 2016

See weather overviewHow to use our weather pages